Content
SEND FEEDBACK

Daily
Averages
Monthly
Summary
United States of America

DES MOINES, IOWA


Home > North America > United States > Iowa
Elevation: 938 feet     Latitude: 41 32N     Longitude: 093 39W

WEATHER
 
SELECT A DAY
Number of Records: 204,757;   Date Range: 1/1/95 - 10/29/14
 
SHARE

PRINT THIS DATA

[ ← Previous Day ]
WEATHER ALMANAC - APRIL 10, 2014
[ Next Day → ]
[ °C ]   °F
Weather ElementAverageHighLow
Temperature60.3 °F66.9 °F (3:54 pm)54 °F (7:54 am)
Dewpoint26.9 °F37.9 °F (4:30 am)18 °F (11:54 am)
Humidity30.8 %53 % (7:54 am)15 % (5:54 pm)
Barometer29.83 in30.00 in (10:54 pm)29.58 in (3:54 am)
Wind Speed10.5 mph18.4 mph (11:54 am)
Wind Gust28.8 mph (4:30 am)
Weather ElementAverage
Visibility10 mi
Wind DirectionSSW (195 °)

Weather ElementTotal
Precipitation---
Heating Degree Days4.6 (Base 65)
Growing Degree Days10.5 (Base 50)
Averaged from 24 records on April 10, 2014
WEATHER CONDITIONS BREAKOUT
WIND DIRECTION BREAKOUT
WEATHER BY HOUR - APRIL 10, 2014
[ °C ]   °F
Local TimeTemperatureDewpointHumidityBarometerVisibilityWind DirectionWind SpeedGust SpeedPrecipitationEventsConditions
1:54 AM60.1 °F36.0 °F41 %29.63 in10.0 miSSW (200°)13.8 mphScattered Clouds
2:54 AM61.0 °F37.0 °F41 %29.60 in10.0 miSSW (200°)17.3 mphScattered Clouds
3:54 AM61.0 °F37.0 °F41 %29.58 in10.0 miSSW (210°)12.7 mphScattered Clouds
4:30 AM61.0 °F37.9 °F42 %29.66 in10.0 miNorth (360°)10.4 mph28.8 mphOvercast
4:54 AM60.1 °F37.9 °F44 %29.67 in10.0 miNorth (350°)11.5 mphPartly Cloudy
5:54 AM57.9 °F37.0 °F46 %29.69 in10.0 miNorth (360°)15.0 mphScattered Clouds
6:54 AM55.0 °F37.0 °F51 %29.75 in10.0 miNorth (360°)12.7 mphOvercast
7:54 AM54.0 °F37.0 °F53 %29.79 in10.0 miNorth (10°)11.5 mphOvercast
8:54 AM55.0 °F35.1 °F47 %29.82 in10.0 miNorth (10°)10.4 mphMostly Cloudy
9:54 AM55.0 °F34.0 °F45 %29.85 in10.0 miNorth (360°)13.8 mphMostly Cloudy
10:54 AM59.0 °F26.1 °F28 %29.88 in10.0 miNorth (10°)17.3 mph24.2 mphScattered Clouds
11:54 AM61.0 °F18.0 °F19 %29.89 in10.0 miNorth (10°)18.4 mph28.8 mphMostly Cloudy
12:54 PM64.9 °F19.0 °F17 %29.88 in10.0 miNorth (360°)13.8 mph24.2 mphOvercast
1:54 PM64.0 °F19.0 °F18 %29.90 in10.0 miNNW (340°)15.0 mph25.3 mphOvercast
2:54 PM63.0 °F19.9 °F19 %29.91 in10.0 miNorth (360°)11.5 mphMostly Cloudy
3:54 PM66.9 °F19.9 °F17 %29.91 in10.0 miVariable4.6 mphScattered Clouds
4:54 PM66.9 °F19.0 °F16 %29.91 in10.0 miNW (320°)11.5 mph17.3 mphPartly Cloudy
5:54 PM66.9 °F18.0 °F15 %29.91 in10.0 miENE (60°)6.9 mphClear
6:54 PM66.0 °F18.0 °F16 %29.91 in10.0 miNNW (340°)6.9 mphPartly Cloudy
7:54 PM62.1 °F18.0 °F18 %29.94 in10.0 miNNW (340°)4.6 mphScattered Clouds
8:54 PM57.9 °F19.9 °F23 %29.96 in10.0 miNNE (20°)4.6 mphMostly Cloudy
9:54 PM57.0 °F21.0 °F25 %29.99 in10.0 miCalmOvercast
10:54 PM55.9 °F23.0 °F28 %30.00 in10.0 miNE (40°)3.5 mphOvercast
11:54 PM55.0 °F21.9 °F28 %30.00 in10.0 miENE (60°)3.5 mphOvercast
Hourly data recorded from KDSM, located miles away from Des Moines, Iowa







STORIES FROM OUR PARTNERS